Location: Asheville, NC
(35.6000°N, 82.5500°W)
Time: 18:34:42
(UTC-04:00)

Vanguard 1 - Pass Details

Date: 14 March 2018
Orbit: 650 x 3833 km, 34.3° (Epoch: 19 June)

Event Time Altitude Azimuth Distance (km) Brightness Sun altitude
Rises 17:53:00 0° 285° (WNW) 7,058 15.4 19.9°
Reaches altitude 10° 18:00:06 10° 271° (W) 5,422 15.5 18.5°
Maximum altitude 18:09:09 19° 234° (SW) 3,752 14.7 16.8°
Drops below altitude 10° 18:15:38 10° 192° (SSW) 3,681 13.4 15.5°
Sets 18:19:13 0° 174° (S) 4,217 13.4 14.8°
